ONEWEB-0055, 45443

Orbit data source: Space-Track

ONEWEB-0055, 45443 is a payload satellite owned by One Web (UK) in LEO that was launched on Sat, 21 Mar 2020 UTC via a SOYUZ-2-1B launch vehicle from the Tyuratam Missile And Space Complex (TTMTR). Payload-class satellites include a variety of spacecraft equipped with specific instruments for various scientific and technological missions. These include communications satellites like Starlink; space stations such as the ISS; scientific satellites like the Hubble; Earth observation satellites from companies like Planet Labs, Umbra, and HawkEye 360; GPS; miniature CubeSats for education and research; and military/defense satellites.

Loading next visibility...
Identifier
45443, 2020-020V
Orbit
LEO
Country
Flag of UKUK
Related business
Manufacturer
One Web
Mission
Operational Commercial Communications
Bus & Motor
ARROW, Unknown motor
Mass
148 kg wet, ~140 kg dry
Launch date (UTC)
2020-03-21 (6 years ago)
Launch vehicle
SOYUZ-2-1B
Launch site
Tyuratam Missile And Space Complex (TTMTR)
Object type
Payload
Rocket body
Debris
Shape & HBR
Trap Box + 2 Pan, 6.7 m
Radar Cross Section
3.464 m², Medium (>0.1 m² and < 1m²)

Expand to show TLE details & history
Last TLE update: 1 day ago

TLE from 1 day ago
0 ONEWEB-0055
1 45443U 20020V   26034.50611613 -.00000179  00000-0 -53992-3 0  9992
2 45443  87.8820  47.6639 0001809  92.0767 268.0568 13.11413778285094
Epoch: 2026-02-03T12:08Z
TLE epoch observation values (Epoch: 2026-02-03T12:08:48.433Z)
Latitude
-0.00004°
Longitude
91.77602°
Altitude
1,220.631 km
Speed
7.244 km/s
True Right ascension
03h 10m 39s
True Declination
0° 00' 00"
Sunlit
Object was in daylight at epoch
Visualization orbit readout
Latitude
Unknown
Longitude
Unknown
Altitude
Unknown
Speed
Unknown
Apparent Right ascension
Unknown
Apparent Declination
Unknown
Sunlit
N/A
Visualization observer readout
Local Sidereal Time
14:15:49
Azimuth
Unknown
Elevation
Unknown
Doppler factor
Unknown
Orbital elements
Apogee altitude
1,216.187 km
Perigee altitude
1,213.44 km
Semi-major axis
7,592.95 km
Eccentricity
0.00018
Inclination
87.882°
RAAN
47.6639°
Arg. of periapsis
92.0767°
True anomaly
268.03608°
Mean anomaly
268.0568°
Eccentric anomaly
268.04644°
Mean motion
3.2804 °/min
Orbital period
109.74 mins
BSTAR
-0.00053992
Loading maneuver chart data...
Computing Atmospheric mass density...
Loading historical data...
Loading historical data...
Loading historical data...
Loading historical data...
Loading historical data...
Loading historical data...
Loading historical data...

Documentation

Showing up to 5 results
|